GW2292 Weather Reports


time (UTC)temp
C
wind
direction
speed
KPH
gust
KPH
rain 1hr
cm
rain 24hr
cm
rain mn
cm
humidity
%
barometer
mb
20260507084031 15 3 3.2 3.2 0.00 0.00 0.00 95 1016.9
20260507083527 15 321 1.6 3.2 0.00 0.00 0.00 96 1017.0
20260507083025 15 326 0.0 3.2 0.00 0.00 0.00 96 1016.9
20260507082520 15 330 0.0 3.2 0.00 0.00 0.00 96 1017.0
20260507082017 15 326 1.6 3.2 0.00 0.00 0.00 96 1017.0
20260507081514 15 3 0.0 4.8 0.00 0.00 0.00 96 1017.0
20260507081011 15 284 0.0 4.8 0.00 0.00 0.00 95 1017.0
20260507080506 15 319 3.2 4.8 0.00 0.00 0.00 96 1017.1
20260507080003 15 319 1.6 4.8 0.00 0.00 0.00 95 1016.9
20260507075458 15 316 3.2 4.8 0.00 0.00 0.00 96 1017.0
20260507074955 15 296 0.0 3.2 0.00 0.00 0.00 95 1017.0
20260507074452 15 276 3.2 4.8 0.00 0.00 0.00 95 1017.1
20260507073950 15 285 3.2 6.4 0.00 0.00 0.00 95 1017.0
20260507073446 15 303 1.6 3.2 0.00 0.00 0.00 95 1017.0
20260507072943 15 307 1.6 6.4 0.00 0.00 0.00 95 1017.1
20260507072440 15 299 3.2 4.8 0.00 0.00 0.00 95 1016.9
20260507071937 15 283 3.2 6.4 0.00 0.00 0.00 95 1016.9
20260507071434 15 310 4.8 8.0 0.00 0.00 0.00 95 1017.2
20260507070931 15 289 4.8 9.7 0.00 0.00 0.00 95 1017.1
20260507070428 15 302 4.8 6.4 0.00 0.00 0.00 95 1017.1
20260507065925 15 303 4.8 8.0 0.00 0.00 0.00 95 1017.2
20260507065421 15 253 1.6 6.4 0.00 0.00 0.00 94 1017.1
20260507064919 15 290 3.2 8.0 0.00 0.00 0.00 94 1017.1
20260507064417 15 273 4.8 8.0 0.00 0.00 0.00 94 1017.2
20260507063915 15 285 1.6 4.8 0.00 0.00 0.00 94 1017.1
20260507063411 15 292 4.8 8.0 0.00 0.00 0.00 94 1017.3
20260507062909 15 261 3.2 8.0 0.00 0.00 0.00 94 1017.5
20260507062405 15 276 3.2 6.4 0.00 0.00 0.00 94 1017.3
20260507061902 15 196 0.0 8.0 0.00 0.00 0.00 94 1017.4
20260507061400 15 279 4.8 9.7 0.00 0.00 0.00 94 1017.4
20260507060853 15 292 8.0 12.9 0.00 0.00 0.00 94 1017.3
20260507060349 15 264 8.0 12.9 0.00 0.00 0.00 94 1017.5
20260507055846 15 280 6.4 9.7 0.00 0.00 0.00 94 1017.4
20260507055341 15 297 6.4 8.0 0.00 0.00 0.00 94 1017.6
20260507054839 15 265 1.6 12.9 0.00 0.00 0.00 94 1017.4
20260507054334 15 255 3.2 12.9 0.00 0.00 0.00 94 1017.3
20260507053832 15 265 6.4 11.3 0.00 0.00 0.00 94 1017.2
20260507053329 15 295 6.4 14.5 0.00 0.00 0.00 94 1017.3
20260507052828 15 250 3.2 6.4 0.00 0.00 0.00 94 1017.3
20260507052324 15 296 6.4 14.5 0.00 0.00 0.00 94 1017.2
20260507051822 16 287 12.9 17.7 0.00 0.00 0.00 94 1017.0
20260507051320 16 283 6.4 17.7 0.00 0.00 0.00 94 1017.2
20260507050816 16 275 16.1 19.3 0.00 0.00 0.00 93 1017.1
20260507050312 16 280 11.3 14.5 0.00 0.00 0.00 93 1017.1
20260507045810 16 289 8.0 14.5 0.00 0.00 0.00 93 1017.2
20260507045307 16 266 11.3 16.1 0.00 0.00 0.00 93 1017.1
20260507044803 16 271 9.7 14.5 0.00 0.00 0.00 92 1017.1
20260507044300 16 232 8.0 16.1 0.00 0.00 0.00 92 1017.1
20260507043756 16 308 6.4 11.3 0.00 0.00 0.00 92 1017.3
20260507043252 16 289 8.0 17.7 0.00 0.00 0.00 92 1017.1
20260507042749 16 253 0.0 8.0 0.00 0.00 0.00 92 1017.1
20260507042244 16 271 9.7 16.1 0.00 0.00 0.00 92 1016.9
20260507041742 16 287 14.5 14.5 0.00 0.00 0.00 91 1017.0
20260507041238 16 303 6.4 8.0 0.00 0.00 0.00 91 1016.9
20260507040735 16 297 3.2 16.1 0.00 0.00 0.00 90 1016.9
20260507040231 16 287 6.4 16.1 0.00 0.00 0.00 90 1017.0
20260507035727 16 273 6.4 12.9 0.00 0.00 0.00 90 1017.0
20260507035223 16 297 4.8 14.5 0.00 0.00 0.00 90 1016.8
20260507034721 16 272 4.8 12.9 0.00 0.00 0.00 89 1016.8
20260507034217 16 278 8.0 16.1 0.00 0.00 0.00 89 1016.7
20260507033716 16 269 6.4 22.5 0.00 0.00 0.00 88 1016.7
20260507033213 16 271 6.4 17.7 0.00 0.00 0.00 89 1016.6
20260507032710 16 294 8.0 14.5 0.00 0.00 0.00 89 1016.5
20260507032206 16 240 6.4 16.1 0.00 0.00 0.00 89 1016.6
20260507031703 16 284 4.8 11.3 0.00 0.00 0.00 90 1016.4
20260507031200 16 257 8.0 19.3 0.00 0.00 0.00 89 1016.4
20260507030656 16 281 11.3 20.9 0.00 0.00 0.00 89 1016.4
20260507030154 16 265 11.3 25.7 0.00 0.00 0.00 89 1016.2
20260507025651 16 283 19.3 25.7 0.00 0.00 0.00 89 1016.5
20260507025148 16 273 11.3 30.6 0.00 0.00 0.00 89 1016.3
20260507024646 16 261 11.3 20.9 0.00 0.00 0.00 89 1016.1
20260507024143 16 285 11.3 25.7 0.00 0.00 0.00 88 1016.2
20260507023638 16 278 9.7 24.1 0.00 0.00 0.00 88 1016.1
20260507023136 16 264 11.3 24.1 0.00 0.00 0.00 87 1016.0
20260507022633 16 250 9.7 30.6 0.00 0.00 0.00 87 1015.8
20260507022128 16 229 3.2 30.6 0.00 0.00 0.00 87 1016.0
20260507021625 17 274 9.7 29.0 0.00 0.00 0.00 86 1016.0
20260507021120 17 267 14.5 30.6 0.00 0.00 0.00 86 1016.0
20260507020619 17 255 12.9 30.6 0.00 0.00 0.00 86 1015.9
20260507020115 17 258 14.5 30.6 0.00 0.00 0.00 85 1015.9
20260507015614 17 278 12.9 30.6 0.00 0.00 0.00 85 1015.9
20260507015111 17 300 8.0 29.0 0.00 0.00 0.00 85 1015.9
20260507014607 17 252 14.5 22.5 0.00 0.00 0.00 86 1015.8
20260507014103 17 306 9.7 29.0 0.00 0.00 0.00 86 1015.9
20260507013600 17 286 11.3 22.5 0.00 0.00 0.00 85 1015.8
20260507013057 17 269 14.5 33.8 0.00 0.00 0.00 85 1015.6
20260507012554 17 271 17.7 25.7 0.00 0.00 0.00 86 1015.9
20260507012049 17 273 19.3 29.0 0.00 0.00 0.00 85 1015.8
20260507011547 17 214 8.0 20.9 0.00 0.00 0.00 85 1015.7
20260507011038 17 266 12.9 27.4 0.00 0.00 0.00 85 1015.6
20260507010532 18 273 9.7 20.9 0.00 0.00 0.00 84 1015.6
20260507010029 17 246 11.3 38.6 0.00 0.00 0.00 86 1015.7
20260507005527 17 250 8.0 33.8 0.00 0.00 0.00 86 1015.6
20260507005023 18 281 27.4 30.6 0.00 0.00 0.00 84 1015.7
20260507004520 18 265 12.9 24.1 0.00 0.00 0.00 83 1015.5
20260507004018 18 217 14.5 29.0 0.00 0.00 0.00 83 1015.6
20260507003513 18 284 20.9 32.2 0.00 0.00 0.00 84 1015.6
20260507003008 18 273 17.7 27.4 0.00 0.00 0.00 83 1015.7
20260507002505 17 281 3.2 30.6 0.00 0.00 0.00 86 1015.7
20260507002001 18 280 24.1 32.2 0.00 0.00 0.00 85 1015.7
20260507001457 18 263 12.9 32.2 0.00 0.00 0.00 84 1015.7
20260507000955 18 267 9.7 32.2 0.00 0.00 0.00 84 1015.7
20260507000451 18 263 6.4 33.8 0.00 0.00 0.00 84 1015.6
20260506235946 19 258 3.2 24.1 0.00 0.00 0.00 82 1015.5
20260506235444 18 173 4.8 20.9 0.00 0.00 0.00 82 1015.5
20260506234939 18 280 11.3 33.8 0.00 0.00 0.00 80 1015.7
20260506234437 18 291 17.7 37.0 0.00 0.00 0.00 81 1015.5
20260506233934 18 271 11.3 27.4 0.00 0.00 0.00 82 1015.5
20260506233431 19 269 16.1 27.4 0.00 0.00 0.00 80 1015.6
20260506232928 20 316 12.9 27.4 0.00 0.00 0.00 79 1015.6
20260506232424 19 281 6.4 27.4 0.00 0.00 0.00 81 1015.7
20260506231920 18 267 35.4 35.4 0.00 0.00 0.00 81 1015.7
20260506231418 19 267 11.3 25.7 0.00 0.00 0.00 81 1015.7
20260506230915 18 288 8.0 30.6 0.00 0.00 0.00 80 1015.7
20260506230411 18 274 22.5 30.6 0.00 0.00 0.00 80 1015.9
20260506225908 19 242 6.4 27.4 0.00 0.00 0.00 80 1015.9
20260506225405 19 262 12.9 22.5 0.00 0.00 0.00 80 1015.9
20260506224902 18 258 17.7 29.0 0.00 0.00 0.00 82 1015.9
20260506224359 18 264 19.3 30.6 0.00 0.00 0.00 81 1016.0
20260506223855 18 272 3.2 30.6 0.00 0.00 0.00 81 1016.2
20260506223350 19 279 9.7 27.4 0.00 0.00 0.00 80 1016.2
20260506222848 19 272 8.0 30.6 0.00 0.00 0.00 77 1016.2
20260506222343 19 287 8.0 24.1 0.00 0.00 0.00 76 1016.2
20260506221841 20 320 4.8 24.1 0.00 0.00 0.00 73 1016.3
20260506221339 20 287 24.1 24.1 0.00 0.00 0.00 70 1016.2
20260506220836 20 250 4.8 25.7 0.00 0.00 0.00 73 1016.4
20260506220331 21 254 6.4 25.7 0.00 0.00 0.00 67 1016.5
20260506215829 20 283 17.7 22.5 0.00 0.00 0.00 68 1016.3
20260506215324 21 280 17.7 20.9 0.00 0.00 0.00 67 1016.7
20260506214820 21 226 4.8 30.6 0.00 0.00 0.00 68 1016.6
20260506214317 21 257 8.0 20.9 0.00 0.00 0.00 68 1016.8
20260506213816 21 117 3.2 12.9 0.00 0.00 0.00 69 1016.7
20260506213313 21 234 4.8 19.3 0.00 0.00 0.00 69 1016.9
20260506212810 21 278 1.6 12.9 0.00 0.00 0.00 68 1016.9
20260506212307 21 218 3.2 11.3 0.00 0.00 0.00 66 1017.0
20260506211801 21 231 4.8 17.7 0.00 0.00 0.00 67 1016.8
20260506211257 21 244 4.8 20.9 0.00 0.00 0.00 65 1016.8
20260506210754 21 283 1.6 16.1 0.00 0.00 0.00 65 1017.1
20260506210251 21 241 6.4 19.3 0.00 0.00 0.00 71 1017.1
20260506205748 21 300 3.2 20.9 0.00 0.00 0.00 72 1017.3
20260506205244 21 240 4.8 14.5 0.00 0.00 0.00 69 1017.3
20260506204741 20 245 11.3 17.7 0.00 0.00 0.00 72 1017.3
20260506204238 21 205 3.2 9.7 0.00 0.00 0.00 72 1017.1
20260506203736 20 247 4.8 16.1 0.00 0.00 0.00 73 1017.2
20260506203233 20 334 3.2 17.7 0.00 0.00 0.00 73 1017.2
20260506202730 20 250 3.2 12.9 0.00 0.00 0.00 74 1017.3
20260506202227 20 232 6.4 17.7 0.00 0.00 0.00 74 1017.3
20260506201724 20 217 3.2 16.1 0.00 0.00 0.00 73 1017.6
20260506201220 20 293 1.6 17.7 0.00 0.00 0.00 75 1017.7
20260506200717 20 192 3.2 14.5 0.00 0.00 0.00 74 1017.8
20260506200208 20 205 8.0 14.5 0.00 0.00 0.00 74 1017.7
20260506195659 20 248 6.4 12.9 0.00 0.00 0.00 75 1017.6
20260506195155 20 240 3.2 11.3 0.00 0.00 0.00 73 1017.8
20260506194653 20 234 4.8 24.1 0.00 0.00 0.00 73 1017.8
20260506194149 20 286 3.2 17.7 0.00 0.00 0.00 74 1017.8
20260506193647 20 207 0.0 14.5 0.00 0.00 0.00 74 1018.0
20260506193144 20 253 6.4 17.7 0.00 0.00 0.00 73 1017.9
20260506192640 20 204 1.6 9.7 0.00 0.00 0.00 74 1017.9
20260506192136 20 291 3.2 17.7 0.00 0.00 0.00 74 1018.0
20260506191634 21 237 3.2 14.5 0.00 0.00 0.00 72 1018.0
20260506191129 20 272 3.2 14.5 0.00 0.00 0.00 72 1018.0
20260506190627 20 290 4.8 20.9 0.00 0.00 0.00 73 1018.4
20260506190124 20 276 3.2 16.1 0.00 0.00 0.00 73 1018.2
20260506185621 21 230 1.6 9.7 0.00 0.00 0.00 72 1018.4
20260506185117 20 232 3.2 11.3 0.00 0.00 0.00 72 1018.4
20260506184614 20 295 3.2 17.7 0.00 0.00 0.00 74 1018.4
20260506184112 21 186 4.8 11.3 0.00 0.00 0.00 71 1018.4
20260506183608 21 252 4.8 9.7 0.00 0.00 0.00 72 1018.5
20260506183104 20 276 3.2 11.3 0.00 0.00 0.00 74 1018.5
20260506182602 20 258 6.4 11.3 0.00 0.00 0.00 75 1018.4
20260506182059 20 215 4.8 12.9 0.00 0.00 0.00 74 1018.4
20260506181557 20 215 3.2 12.9 0.00 0.00 0.00 74 1018.5
20260506181053 20 43 3.2 12.9 0.00 0.00 0.00 75 1018.6
20260506180550 20 238 3.2 12.9 0.00 0.00 0.00 76 1018.5
20260506180047 20 222 4.8 12.9 0.00 0.00 0.00 75 1018.4
20260506175543 20 342 1.6 11.3 0.00 0.00 0.00 76 1018.5
20260506175039 20 250 3.2 12.9 0.00 0.00 0.00 75 1018.5
20260506174538 20 169 6.4 9.7 0.00 0.00 0.00 75 1018.6
20260506174034 20 272 3.2 14.5 0.00 0.00 0.00 75 1018.5
20260506173532 20 268 1.6 8.0 0.00 0.00 0.00 75 1018.4
20260506173028 20 252 3.2 11.3 0.00 0.00 0.00 75 1018.5
20260506172526 20 240 4.8 12.9 0.00 0.00 0.00 75 1018.5
20260506172022 19 259 4.8 17.7 0.00 0.00 0.00 76 1018.6
20260506171519 20 248 4.8 17.7 0.00 0.00 0.00 73 1018.6
20260506171017 20 303 3.2 9.7 0.00 0.00 0.00 75 1018.5
20260506170514 20 275 3.2 9.7 0.00 0.00 0.00 74 1018.5
20260506170011 20 33 3.2 11.3 0.00 0.00 0.00 75 1018.5
20260506165510 20 255 1.6 11.3 0.00 0.00 0.00 74 1018.4
20260506165000 19 263 6.4 12.9 0.00 0.00 0.00 74 1018.2
20260506164457 20 292 3.2 6.4 0.00 0.00 0.00 73 1018.3
20260506163955 19 337 3.2 12.9 0.00 0.00 0.00 74 1018.4
20260506163449 20 311 3.2 8.0 0.00 0.00 0.00 73 1018.3
20260506162949 19 246 4.8 9.7 0.00 0.00 0.00 75 1018.4
20260506162447 19 260 3.2 12.9 0.00 0.00 0.00 74 1018.3
20260506161939 19 235 1.6 6.4 0.00 0.00 0.00 74 1018.3
20260506161437 19 196 3.2 8.0 0.00 0.00 0.00 74 1018.3
20260506160929 20 298 3.2 9.7 0.00 0.00 0.00 73 1018.4
20260506160426 20 102 4.8 11.3 0.00 0.00 0.00 71 1018.5
20260506155923 20 72 6.4 12.9 0.00 0.00 0.00 70 1018.5
20260506155420 20 115 4.8 8.0 0.00 0.00 0.00 71 1018.6
20260506153542 20 42 3.2 6.4 0.00 0.00 0.00 74 1018.4
20260506153040 19 33 0.0 6.4 0.00 0.00 0.00 75 1018.3
20260506152537 19 114 6.4 8.0 0.00 0.00 0.00 74 1018.4
20260506152035 20 10 3.2 6.4 0.00 0.00 0.00 73 1018.4
20260506151532 19 59 3.2 6.4 0.00 0.00 0.00 75 1018.4
20260506151029 18 15 0.0 6.4 0.00 0.00 0.00 77 1018.4
20260506150526 18 81 1.6 6.4 0.00 0.00 0.00 77 1018.4
20260506150023 18 70 9.7 9.7 0.00 0.00 0.00 75 1018.5
20260506145519 17 99 3.2 4.8 0.00 0.00 0.00 78 1018.3
20260506145017 17 22 3.2 8.0 0.00 0.00 0.00 79 1018.4
20260506144513 17 81 8.0 9.7 0.00 0.00 0.00 78 1018.3
20260506144011 16 81 4.8 6.4 0.00 0.00 0.00 79 1018.3
20260506143508 16 39 4.8 9.7 0.00 0.00 0.00 80 1018.3
20260506143007 16 57 3.2 8.0 0.00 0.00 0.00 81 1018.5
20260506142504 15 58 1.6 8.0 0.00 0.00 0.00 82 1018.5
20260506142002 15 71 6.4 9.7 0.00 0.00 0.00 82 1018.2
20260506141459 15 51 3.2 8.0 0.00 0.00 0.00 82 1018.2
20260506140958 15 53 4.8 6.4 0.00 0.00 0.00 83 1018.3
20260506140455 15 2 0.0 6.4 0.00 0.00 0.00 83 1018.2
20260506135951 14 70 4.8 8.0 0.00 0.00 0.00 84 1018.0
20260506135448 14 61 3.2 8.0 0.00 0.00 0.00 84 1018.2
20260506134944 14 63 4.8 6.4 0.00 0.00 0.00 85 1018.2
20260506134440 14 75 4.8 6.4 0.00 0.00 0.00 86 1018.1
20260506133937 14 41 1.6 4.8 0.00 0.00 0.00 87 1018.0
20260506133435 13 60 0.0 4.8 0.00 0.00 0.00 88 1018.1
20260506132931 13 63 1.6 4.8 0.00 0.00 0.00 89 1017.7
20260506132428 13 351 0.0 4.8 0.00 0.00 0.00 90 1017.8
20260506131926 12 81 1.6 3.2 0.00 0.00 0.00 91 1017.9
20260506131422 12 74 1.6 4.8 0.00 0.00 0.00 91 1017.8
20260506130919 12 45 3.2 3.2 0.00 0.00 0.00 91 1017.7
20260506130416 12 37 0.0 3.2 0.00 0.00 0.00 91 1017.6
20260506125914 12 49 0.0 3.2 0.00 0.00 0.00 91 1017.5
20260506125412 12 350 3.2 3.2 0.00 0.00 0.00 91 1017.7
20260506124910 12 65 0.0 3.2 0.00 0.00 0.00 91 1017.5
20260506124407 12 6 1.6 3.2 0.00 0.00 0.00 91 1017.6
20260506123905 12 52 1.6 4.8 0.00 0.00 0.00 91 1017.4
20260506123403 12 63 4.8 6.4 0.00 0.00 0.00 91 1017.4
20260506122900 12 94 3.2 6.4 0.00 0.00 0.00 91 1017.5
20260506122356 12 61 0.0 4.8 0.00 0.00 0.00 91 1017.3
20260506121855 12 32 1.6 3.2 0.00 0.00 0.00 91 1017.4
20260506121351 12 48 1.6 3.2 0.00 0.00 0.00 91 1017.3
20260506120848 12 58 0.0 4.8 0.00 0.00 0.00 91 1017.3
20260506120346 12 52 1.6 3.2 0.00 0.00 0.00 91 1017.2
20260506115843 12 94 3.2 4.8 0.00 0.00 0.00 91 1017.1
20260506115342 12 143 1.6 6.4 0.00 0.00 0.00 91 1017.2
20260506114839 12 94 6.4 8.0 0.00 0.00 0.00 91 1017.2
20260506114336 12 86 6.4 8.0 0.00 0.00 0.00 92 1017.3
20260506113835 12 82 6.4 6.4 0.00 0.00 0.00 92 1017.2
20260506113332 12 74 3.2 6.4 0.00 0.00 0.00 92 1017.2
20260506112828 13 38 1.6 6.4 0.00 0.00 0.00 92 1017.2
20260506112326 13 65 6.4 6.4 0.00 0.00 0.00 93 1017.0
20260506111823 13 97 0.0 6.4 0.00 0.00 0.00 93 1017.0
20260506111321 13 94 3.2 6.4 0.00 0.00 0.00 93 1017.0
20260506110819 13 89 3.2 8.0 0.00 0.00 0.00 93 1017.1
20260506110315 13 94 3.2 6.4 0.00 0.00 0.00 93 1017.1
20260506105812 13 80 1.6 4.8 0.00 0.00 0.00 94 1017.2
20260506105309 13 77 3.2 6.4 0.00 0.00 0.00 94 1017.2
20260506104807 13 97 1.6 6.4 0.00 0.00 0.00 94 1017.0
20260506104304 13 83 4.8 6.4 0.00 0.00 0.00 94 1017.2
20260506103802 13 72 3.2 6.4 0.00 0.00 0.00 94 1017.1
20260506103259 13 84 4.8 8.0 0.00 0.00 0.00 94 1017.1
20260506102756 13 97 4.8 9.7 0.00 0.00 0.00 94 1017.2
20260506102254 13 93 4.8 6.4 0.00 0.00 0.00 94 1017.1
20260506101751 13 88 3.2 4.8 0.00 0.00 0.00 94 1017.1
20260506101247 13 79 3.2 4.8 0.00 0.00 0.00 94 1017.2
20260506100745 13 89 3.2 3.2 0.00 0.00 0.00 94 1017.2
20260506100243 13 58 0.0 3.2 0.00 0.00 0.00 94 1017.1
20260506095741 13 47 3.2 3.2 0.00 0.00 0.00 94 1017.1
20260506095238 13 111 1.6 3.2 0.00 0.00 0.00 93 1017.2
20260506094734 13 83 3.2 4.8 0.00 0.00 0.00 93 1017.1
20260506094233 13 50 1.6 3.2 0.00 0.00 0.00 93 1017.3
20260506093731 13 77 3.2 4.8 0.00 0.00 0.00 93 1017.3
20260506093228 13 98 0.0 4.8 0.00 0.00 0.00 93 1017.2
20260506092726 13 88 3.2 6.4 0.00 0.00 0.00 93 1017.1
20260506092223 13 92 3.2 4.8 0.00 0.00 0.00 92 1017.1
20260506091721 13 80 3.2 4.8 0.00 0.00 0.00 92 1017.3
20260506091218 13 84 0.0 3.2 0.00 0.00 0.00 92 1017.3
20260506090716 13 109 1.6 6.4 0.00 0.00 0.00 92 1017.3
20260506090212 14 32 0.0 6.4 0.00 0.00 0.00 91 1017.4
20260506085710 14 113 3.2 6.4 0.00 0.00 0.00 91 1017.2
20260506085205 14 113 4.8 4.8 0.00 0.00 0.00 90 1017.5
20260506084702 14 82 1.6 3.2 0.00 0.00 0.00 90 1017.5